Location: Buchberg
(46.9333°N, 15.8500°E)
Time: 09:14:04
(UTC+00:00)

IDEFIX/ARIANE 42P - Pass Details

Date: 14 July 2020
Orbit: 784 x 804 km, 98.4° (Epoch: 07 August)

Event Time Altitude Azimuth Distance (km) Brightness Sun altitude
Rises 01:52:35 0° 17° (NNE) 3,293 7.2 -11.5°
Reaches altitude 10° 01:54:59 10° 23° (NNE) 2,358 6.3 -11.2°
Maximum altitude 02:00:04 53° 100° (E) 958 3.2 -10.6°
Drops below altitude 10° 02:05:06 10° 177° (S) 2,336 4.6 -10.1°
Enters shadow 02:06:34 - 181° (S) 2,906 5.1 -9.9°
